Regional Weather Roundup
Issued by NWS

Home | Current Version | Previous Version | Text Only | Print | Product List | Glossary Off
Versions: 1 2 3 4 5 6 7 8 9 10 11 12 13 14 15 16 17 18 19 20 21 22 23 24 25 26 27 28 29 30 31 32 33 34 35 36 37 38 39 40 41 42 43 44 45 46 47 48 49 50

363
ASUS43 KDTX 241510
RWRMI
MICHIGAN HOURLY REGIONAL WEATHER ROUNDUP
NATIONAL WEATHER SERVICE DETROIT/PONTIAC MI
ISSUED BY NATIONAL WEATHER SERVICE GRAND RAPIDS MI
1100 AM EDT THU MAY 24 2018

NOTE: "FAIR" INDICATES FEW OR NO CLOUDS BELOW 12,000 FEET WITH NO
SIGNIFICANT WEATHER AND/OR OBSTRUCTION TO VISIBILITY.

MIZ047>049-052>055-059>063-066>070-074>076-081>083-241600-
SOUTHEAST LOWER MICHIGAN

CITY           SKY/WX    TMP DP  RH WIND       PRES   REMARKS
ADRIAN         FAIR      75  52  44 SW3       30.25S
ALMA           FAIR      73  51  46 SW8       30.24S
ANN ARBOR      FAIR      76  52  43 CALM      30.24S
BAD AXE        FAIR      73  56  56 CALM      30.22S
DETROIT CITY   FAIR      77  51  40 CALM      30.22F
DETROIT        FAIR      78  51  38 SW3       30.24S
FLINT          FAIR      75  57  53 SW6       30.23S
GROSSE ILE     FAIR      74  58  55 S3        30.23S
HILLSDALE      FAIR      75  46  35 SW3       30.26R
HOWELL         FAIR      75  53  46 S5        30.24S

CITY           SKY/WX    TMP DP  RH WIND       PRES   REMARKS
JACKSON        FAIR      75  53  46 CALM      30.24F
LANSING        FAIR      75  55  49 SW5       30.24F
MASON          FAIR      75  52  45 SW3       30.25S
MONROE         FAIR      76  48  37 CALM      30.23S
MT. CLEMENS    MOSUNNY   76  64  65 VRB3      30.21F
PONTIAC        FAIR      77  51  40 W5        30.22F
PORT HOPE        N/A     63  56  78 E5        30.20F
PORT HURON     FAIR      75  52  43 CALM      30.22S
TRI CITIES     FAIR      75  56  51 SW8       30.22F
YPSILANTI      FAIR      79  50  36 CALM      30.24S
$$
MIZ043>046-050>051-056>058-064>065-071>073-077>080-241600-
SOUTHWEST LOWER MICHIGAN

CITY           SKY/WX    TMP DP  RH WIND       PRES   REMARKS
BATTLE CREEK   FAIR      75  56  51 SW6       30.25S
BENTON HARBOR  FAIR      77  56  48 SW6       30.22F
BIG RAPIDS     FAIR      75  51  42 W8        30.22S
COLDWATER      FAIR      73  50  43 CALM      30.25S
HOLLAND        FAIR      76  55  48 SW12      30.23S
GRAND RAPIDS   PTSUNNY   76  56  49 SW8       30.23S
KALAMAZOO      FAIR      76  56  49 S8        30.24S
MARSHALL       FAIR      74  52  45 CALM      30.24F
MOUNT PLEASANT FAIR      76  53  44 S5        30.21S
MUSKEGON       PTSUNNY   75  54  47 S8        30.22F
STURGIS        FAIR      74  54  50 S5        30.24F
$$
MIZ016>042-241600-
NORTHERN LOWER MICHIGAN

CITY           SKY/WX    TMP DP  RH WIND       PRES   REMARKS
ALPENA         FAIR      78  53  41 W7        30.17F
BEAVER ISLAND  FAIR      70  52  52 SW12      30.16F
BELLAIRE       FAIR      74  47  37 CALM      30.18F
CADILLAC       FAIR      75  52  45 SW9       30.20F
CHARLEVOIX     FAIR      74  52  46 SW12      30.19F
GAYLORD        FAIR      74  52  46 W12       30.19F
MANISTEE       FAIR      75  56  51 SW8       30.19F
OSCODA         FAIR      76  52  42 E6        30.18F
PELLSTON       FAIR      76  54  46 W6        30.16F
TRAVERSE CITY  PTSUNNY   78  51  38 SW8       30.16F
LUDINGTON      FAIR      70  52  52 W6        30.20F
$$
MIZ007>008-015-241600-
EASTERN UPPER MICHIGAN

CITY           SKY/WX    TMP DP  RH WIND       PRES   REMARKS
KINROSS        FAIR      73  57  57 W8        30.13F
MACKINAC ISLAN FAIR      66  48  51 W7        30.16R
NEWBERRY       HAZE      70  58  64 SW7       30.13F VSB 1
S. S. MARIE    FAIR      70  55  59 N3        30.12F
$$
MIZ004>006-011>014-085-241600-
CENTRAL UPPER MICHIGAN

CITY           SKY/WX    TMP DP  RH WIND       PRES   REMARKS
MANISTIQUE     FAIR      58  51  79 S5        30.14F
ESCANABA       FAIR      69  58  67 S9        30.13F
MENOMINEE      PTSUNNY   77  60  55 SW8       30.14F
SAWYER-GWINN   SUNNY     75  59  57 W12       30.13F
$$
MIZ001>003-009>011-084-241600-
WESTERN UPPER MICHIGAN

CITY           SKY/WX    TMP DP  RH WIND       PRES   REMARKS
IRON MOUNTAIN  HVY RAIN  69  64  84 NW14      30.14R
HOUGHTON       FAIR      74  61  63 SW10      30.08F
COPPER HARBOR    N/A     61  46  57 N3        30.06F
IRONWOOD       LGT RAIN  65  62  90 SE5       30.10F
$$

ABBREVIATIONS USED IN REMARKS
   TC - TEMPERATURE IN CELSIUS
  WCI - WIND CHILL INDEX
   HX - HEAT INDEX
  VSB - VISIBILITY





USA.gov is the U.S. government's official web portal to all federal, state and local government web resources and services.